Location: Newark
(43.6583°N, 1.6617°E)
Time: 23:47:58
(UTC+00:00)

Transit 4A - Pass Details

Date: 27 August 2019
Orbit: 867 x 978 km, 66.8° (Epoch: 17 October)

Event Time Altitude Azimuth Distance (km) Brightness Sun altitude
Rises 18:38:06 0° 255° (WSW) 3,672 12.2 -0.8°
Reaches altitude 10° 18:41:15 10° 270° (W) 2,728 12.1 -1.4°
Maximum altitude 18:46:13 23° 321° (NW) 1,941 10.5 -2.2°
Drops below altitude 10° 18:51:10 10° 12° (NNE) 2,714 10.4 -3.1°
Sets 18:54:19 0° 27° (NNE) 3,649 10.9 -3.6°
